Regional Weather Roundup
Issued by NWS

Home | Current Version | Previous Version | Graphics & Text | Print | Product List | Glossary Off
Versions: 1 2 3 4 5 6 7 8 9 10 11 12 13 14 15 16 17 18 19 20 21 22 23 24 25 26 27 28 29 30 31 32 33 34 35 36 37 38 39 40 41 42 43 44 45 46 47 48 49 50

000
ASUS43 KFSD 231610
RWRSD

WEATHER ROUNDUP FOR SOUTH DAKOTA
NATIONAL WEATHER SERVICE SIOUX FALLS SD
1100 AM CDT WED JUL 23 2014

NOTE: "FAIR" INDICATES FEW OR NO CLOUDS BELOW 12,000 FEET WITH NO
SIGNIFICANT WEATHER AND/OR OBSTRUCTIONS TO VISIBILITY.


SDZ001>005-009-010-012>017-231700-
NORTHWEST AND NORTH CENTRAL SOUTH DAKOTA

CITY           SKY/WX    TMP DP  RH WIND       PRES   REMARKS
BUFFALO          N/A     76  63  64 SE6       30.17F
FAITH            N/A     75  62  64 SE21      30.24R
MOBRIDGE       SUNNY     75  61  61 S17       30.25S
$$

SDZ012>016-024>037-041>051-057-063-072>074-231700-
SOUTHWEST AND SOUTH CENTRAL SOUTH DAKOTA

CITY           SKY/WX    TMP DP  RH WIND       PRES   REMARKS
RAPID CTY ARPT SUNNY     79  59  50 S20       30.23F
PIERRE         MOSUNNY   78  57  48 SE24G31   30.25R
CUSTER         PTSUNNY   72  53  51 SW9       30.38F
ELLSWORTH AFB  SUNNY     81  58  46 S17       30.23F
PHILIP         MOSUNNY   77  61  57 E10       30.22F
PINE RIDGE     SUNNY     79  62  56 S5        30.25R
WINNER         FAIR      75  56  51 SE21      30.27F
$$

SDZ004>011-016>023-039-040-231700-
NORTHEAST SOUTH DAKOTA

CITY           SKY/WX    TMP DP  RH WIND       PRES   REMARKS
ABERDEEN       SUNNY     73  58  59 S8        30.29F
WATERTOWN      SUNNY     72  53  51 SE9       30.30S
SISSETON         N/A     73  60  63 E3        30.29S
$$

SDZ017-020-022-023-036>040-048>070-231700-
SOUTHEAST SOUTH DAKOTA

CITY           SKY/WX    TMP DP  RH WIND       PRES   REMARKS
SIOUX FALLS    MOSUNNY   74  55  51 SE7       30.29S
HURON          SUNNY     74  57  55 E9        30.28F
CHAMBERLAIN    CLOUDY    73  56  56 SE15      30.29S
MITCHELL       MOSUNNY   76  58  53 SE10      30.30S
YANKTON        PTSUNNY   72  57  60 SE6       30.29S
$$

ABBREVIATIONS USED IN REMARKS
   TC - TEMPERATURE IN CELSIUS
  WCI - WIND CHILL INDEX
   HX - HEAT INDEX
  VSB - VISIBILITY



USA.gov is the U.S. government's official web portal to all federal, state and local government web resources and services.